#datint,netname,site,siteID,timestamp,IntT,BattV,AirT2,AirT,AirT_Avg,AirT_Max,AirT_Min,RH_Avg,RH_Max,RH_Min,EA_Avg,Td_Avg,Td_Max,Td_Min,WindS_Smp,WindS_Avg,WindD_Avg,WindD_SD,WindS_Max,ETo,ETr,SoilT4,SoilT8,SoilVWC8,SolarW_Avg,wetstate_Avg,wetT_Avg,Precip_accum,Precip_WPG,Precip_TB
15min,AgWx,beryljct,423,18JAN2020:00:00:00,17.9,12.78,16.0,15.6,16.6,17.7,15.6,86,87,84,0.267,13.0,14.1,12.4,1.074,2.1,327,20,4.0,-0.00008,-0.00010,31.8,33.3,18,0,.,.,8.54,0.00,0.00
15min,AgWx,beryljct,423,18JAN2020:00:15:00,17.7,12.79,14.6,14.5,15.0,15.7,14.5,84,87,83,0.248,11.1,12.4,10.6,3.968,3.4,353,19,4.7,-0.00005,-0.00006,31.9,33.3,18,0,.,.,8.54,0.00,0.00
15min,AgWx,beryljct,423,18JAN2020:00:30:00,17.5,12.78,19.1,18.2,16.6,18.8,14.4,81,86,74,0.257,11.8,12.7,10.7,4.253,3.5,310,14,4.6,-0.00004,-0.00005,31.9,33.3,19,0,.,.,8.54,0.00,0.00
15min,AgWx,beryljct,423,18JAN2020:00:45:00,17.7,12.78,17.4,18.3,18.8,20.4,18.0,76,79,73,0.264,12.5,13.3,11.7,0.877,2.5,49,53,5.7,-0.00006,-0.00007,31.9,33.3,19,0,.,.,8.54,0.00,0.00
15min,AgWx,beryljct,423,18JAN2020:01:00:00,18.0,12.76,18.6,18.1,17.7,18.3,16.8,81,85,77,0.277,13.0,13.9,11.9,3.661,3.6,176,29,6.4,-0.00004,-0.00005,31.9,33.3,19,0,.,.,8.54,0.00,0.00
15min,AgWx,beryljct,423,18JAN2020:01:15:00,18.3,12.76,19.3,18.9,18.4,18.9,18.1,80,81,77,0.273,13.1,13.5,12.9,0.285,2.1,184,13,3.7,-0.00007,-0.00009,31.9,33.3,19,0,.,.,8.54,0.00,0.00
15min,AgWx,beryljct,423,18JAN2020:01:30:00,18.5,12.76,18.7,18.9,19.1,19.7,18.5,76,77,74,0.270,12.7,13.1,12.3,0.417,0.8,164,18,2.6,-0.00013,-0.00018,31.9,33.3,18,0,.,.,8.54,0.00,0.00
15min,AgWx,beryljct,423,18JAN2020:01:45:00,18.5,12.74,18.1,17.9,18.2,18.9,17.9,81,84,76,0.286,13.4,14.0,12.7,0.767,0.4,144,0.0,1.7,-0.00015,-0.00022,31.9,33.3,19,0,.,.,8.54,0.00,0.00
15min,AgWx,beryljct,423,18JAN2020:02:00:00,18.4,12.73,18.0,17.4,17.5,18.0,17.3,86,87,84,0.289,14.0,14.2,13.8,2.126,0.8,150,4.7,2.2,-0.00013,-0.00018,31.8,33.3,19,0,.,.,8.54,0.00,0.00
15min,AgWx,beryljct,423,18JAN2020:02:15:00,18.3,12.73,17.7,17.5,17.8,18.1,17.4,85,87,84,0.284,14.1,14.4,13.8,1.798,1.8,179,17,3.6,-0.00009,-0.00012,31.9,33.3,19,0,.,.,8.54,0.00,0.00
15min,AgWx,beryljct,423,18JAN2020:02:30:00,18.2,12.72,17.1,16.9,17.2,17.5,16.9,84,85,84,0.276,13.3,13.7,13.1,2.762,1.8,148,26,3.2,-0.00009,-0.00011,31.9,33.3,18,0,.,.,8.54,0.00,0.00
15min,AgWx,beryljct,423,18JAN2020:02:45:00,18.0,12.7,16.5,16.4,16.6,16.9,16.3,87,88,85,0.277,13.3,13.6,13.1,1.688,1.7,142,4.0,3.7,-0.00009,-0.00012,31.9,33.3,19,0,.,.,8.54,0.00,0.00
15min,AgWx,beryljct,423,18JAN2020:03:00:00,17.6,12.71,16.6,16.0,16.1,16.3,15.9,88,88,87,0.275,13.0,13.3,12.9,0.636,0.7,155,0.1,2.8,-0.00013,-0.00018,31.9,33.3,18,0,.,.,8.54,0.00,0.00
15min,AgWx,beryljct,423,18JAN2020:03:15:00,17.2,12.7,14.5,14.4,15.9,16.4,14.4,87,88,87,0.254,12.7,13.3,11.2,2.126,1.4,75,64,4.1,-0.00010,-0.00013,31.8,33.3,18,0,.,.,8.54,0.00,0.00
15min,AgWx,beryljct,423,18JAN2020:03:30:00,16.8,12.68,14.8,14.5,14.7,15.2,14.4,88,89,87,0.257,11.8,12.5,11.3,3.266,2.4,326,8.4,3.5,-0.00007,-0.00009,31.9,33.3,18,0,.,.,8.54,0.00,0.00
15min,AgWx,beryljct,423,18JAN2020:03:45:00,16.6,12.67,16.5,16.0,15.2,16.0,14.5,88,88,87,0.271,12.2,12.8,11.6,3.771,3.3,323,4.1,4.8,-0.00006,-0.00006,31.9,33.3,18,0,.,.,8.55,0.01,0.00
15min,AgWx,beryljct,423,18JAN2020:04:00:00,16.8,12.66,16.1,15.6,16.0,16.5,15.5,86,87,85,0.263,12.4,12.9,11.9,1.052,2.7,17,37,4.0,-0.00007,-0.00008,31.9,33.3,18,0,.,.,8.54,0.00,0.00
15min,AgWx,beryljct,423,18JAN2020:04:15:00,16.6,12.66,16.5,15.9,15.5,16.0,15.3,86,87,85,0.268,12.1,12.5,11.7,0,0.8,131,41,2.7,-0.00012,-0.00017,31.9,33.3,19,0,.,.,8.54,0.00,0.00
15min,AgWx,beryljct,423,18JAN2020:04:30:00,16.5,12.66,15.5,15.1,15.5,16.0,15.0,88,89,86,0.268,12.5,12.7,12.2,0.241,2.3,175,5.7,4.3,-0.00008,-0.00009,31.8,33.3,18,0,.,.,8.54,0.00,0.00
15min,AgWx,beryljct,423,18JAN2020:04:45:00,16.4,12.66,15.6,15.4,15.3,15.5,15.1,89,89,89,0.272,12.7,12.9,12.4,0,1.0,178,6.2,2.9,-0.00012,-0.00016,31.9,33.3,18,0,.,.,8.55,0.00,0.00
15min,AgWx,beryljct,423,18JAN2020:05:00:00,16.2,12.65,15.7,15.1,15.3,15.7,15.1,88,89,87,0.266,12.5,13.0,12.1,0,0.7,129,7.1,2.4,-0.00013,-0.00018,31.9,33.3,19,0,.,.,8.55,0.00,0.00
15min,AgWx,beryljct,423,18JAN2020:05:15:00,15.9,12.65,16.1,15.5,15.5,15.7,15.1,88,89,88,0.269,12.6,12.8,12.3,0.702,1.0,142,0.1,2.1,-0.00011,-0.00015,31.9,33.3,18,0,.,.,8.54,0.00,0.00
15min,AgWx,beryljct,423,18JAN2020:05:30:00,15.8,12.64,15.9,15.3,15.5,15.7,15.3,88,89,87,0.270,12.7,12.9,12.5,1.469,0.9,167,24,3.2,-0.00012,-0.00017,31.9,33.3,18,0,.,.,8.54,0.00,0.00
15min,AgWx,beryljct,423,18JAN2020:05:45:00,15.7,12.64,15.7,15.3,15.5,15.7,15.3,88,89,87,0.265,12.5,13.0,12.2,3.551,2.1,181,13,4.7,-0.00008,-0.00010,31.8,33.3,18,0,.,.,8.54,0.00,0.00
15min,AgWx,beryljct,423,18JAN2020:06:00:00,15.6,12.64,15.4,15.1,15.4,15.7,15.1,87,87,86,0.261,12.2,12.6,11.9,0.789,2.1,165,1.3,3.4,-0.00008,-0.00010,31.8,33.3,18,0,.,.,8.54,0.00,0.00
15min,AgWx,beryljct,423,18JAN2020:06:15:00,15.4,12.62,14.7,14.8,15.0,15.5,14.7,88,89,86,0.254,12.0,12.5,11.3,3.091,2.5,298,41,4.3,-0.00007,-0.00009,31.8,33.3,18,0,.,.,8.54,0.00,0.00
15min,AgWx,beryljct,423,18JAN2020:06:30:00,15.3,12.62,13.9,13.6,14.4,15.4,13.5,86,87,85,0.244,11.0,12.2,9.9,4.45,3.4,331,7.3,5.2,-0.00005,-0.00006,31.8,33.3,18,0,.,.,8.55,0.00,0.00
15min,AgWx,beryljct,423,18JAN2020:06:45:00,15.1,12.62,15.6,15.0,13.9,15.0,13.5,87,88,87,0.259,10.9,11.9,10.4,3.354,4.7,343,7.2,6.2,-0.00004,-0.00004,31.8,33.3,18,0,.,.,8.55,0.00,0.00
15min,AgWx,beryljct,423,18JAN2020:07:00:00,15.1,12.62,15.9,15.3,14.9,15.3,14.5,86,87,84,0.254,11.3,11.8,11.0,1.425,1.9,339,25,3.7,-0.00008,-0.00010,31.8,33.3,19,0,.,.,8.55,0.00,0.00
15min,AgWx,beryljct,423,18JAN2020:07:15:00,14.9,12.61,14.2,14.1,14.5,15.4,13.6,84,86,83,0.247,10.6,11.4,9.7,3.902,2.1,103,49,4.5,0.00004,0.00006,31.8,33.3,18,0,.,.,8.55,0.00,0.00
15min,AgWx,beryljct,423,18JAN2020:07:30:00,14.6,12.61,13.6,13.0,13.3,14.1,12.8,88,89,86,0.244,10.3,10.7,9.8,3.047,3.7,169,28,5.0,0.00004,0.00008,31.8,33.3,18,0,.,.,8.55,0.00,0.00
15min,AgWx,beryljct,423,18JAN2020:07:45:00,14.4,12.61,14.6,14.2,13.6,14.2,13.0,88,89,87,0.252,10.8,11.1,10.3,3.595,4.7,176,12,6.8,0.00005,0.00009,31.8,33.3,19,2,.,.,8.55,0.00,0.00
15min,AgWx,beryljct,423,18JAN2020:08:00:00,14.6,12.64,16.5,15.9,14.8,15.9,14.2,86,87,84,0.261,11.4,11.9,11.0,4.45,4.4,174,5.9,5.7,0.00008,0.00012,31.8,33.3,18,9,.,.,8.55,0.00,0.00
15min,AgWx,beryljct,423,18JAN2020:08:15:00,15.0,12.89,16.5,16.1,16.2,16.5,15.8,83,84,82,0.259,11.9,12.2,11.7,4.823,4.2,165,7.4,5.3,0.00015,0.00021,31.7,33.3,19,34,.,.,8.54,0.00,0.00
15min,AgWx,beryljct,423,18JAN2020:08:30:00,15.9,14.47,17.4,17.2,16.9,17.2,16.1,82,83,81,0.271,12.2,12.7,11.7,3.968,4.7,172,7.8,6.3,0.00025,0.00033,31.7,33.3,18,88,.,.,8.54,0.00,0.00
15min,AgWx,beryljct,423,18JAN2020:08:45:00,17.6,14.89,21.7,20.4,18.7,20.4,17.1,82,84,78,0.296,14.0,14.7,12.7,1.995,2.6,188,6.9,4.4,0.00035,0.00041,31.7,33.3,19,140,.,.,8.54,0.00,0.00
15min,AgWx,beryljct,423,18JAN2020:09:00:00,19.8,14.93,22.6,22.1,21.9,22.4,20.5,75,78,73,0.314,15.2,16.3,14.4,3.025,0.9,227,54,3.6,0.00044,0.00049,31.7,33.3,19,151,.,.,8.54,0.00,0.00
15min,AgWx,beryljct,423,18JAN2020:09:15:00,21.8,14.91,21.6,21.1,21.2,22.2,20.8,78,80,76,0.303,15.4,16.3,14.5,5.086,4.6,316,5.9,5.8,0.00048,0.00058,31.7,33.3,19,162,.,.,8.54,0.00,0.00
15min,AgWx,beryljct,423,18JAN2020:09:30:00,23.4,14.87,23.2,22.8,22.2,22.8,21.1,77,78,74,0.310,16.1,16.7,15.3,4.604,4.6,326,5.6,5.6,0.00059,0.00070,31.6,33.3,19,206,.,.,8.54,0.00,0.00
15min,AgWx,beryljct,423,18JAN2020:09:45:00,25.1,14.85,23.8,23.8,23.4,23.9,22.7,72,74,69,0.299,15.5,16.2,15.0,3.266,4.5,331,6.7,6.4,0.00078,0.00093,31.6,33.3,19,274,.,.,8.54,0.00,0.00
15min,AgWx,beryljct,423,18JAN2020:10:00:00,27.3,14.8,25.5,25.3,24.7,25.3,23.8,67,70,65,0.304,15.4,16.7,14.5,2.916,3.7,333,12,5.2,0.00103,0.00120,31.6,33.3,19,355,.,.,8.54,0.00,0.00
15min,AgWx,beryljct,423,18JAN2020:10:15:00,29.5,14.86,26.5,26.1,25.8,26.2,25.3,62,66,59,0.286,14.4,15.7,13.5,4.494,3.8,349,16,5.0,0.00117,0.00137,31.6,33.3,19,384,.,.,8.54,0.00,0.00
15min,AgWx,beryljct,423,18JAN2020:10:30:00,31.3,14.75,26.7,26.7,26.6,26.9,26.1,59,61,56,0.277,14.2,15.0,13.3,2.17,2.8,351,11,4.3,0.00127,0.00146,31.6,33.3,19,402,.,.,8.54,0.00,0.00
15min,AgWx,beryljct,423,18JAN2020:10:45:00,32.9,14.36,27.6,27.6,27.3,28.2,26.7,56,57,55,0.283,13.7,14.4,13.0,2.126,1.0,336,18,2.6,0.00123,0.00135,31.5,33.3,18,367,.,.,8.54,0.00,0.00
15min,AgWx,beryljct,423,18JAN2020:11:00:00,34.0,14.33,28.9,28.3,27.8,28.3,27.5,54,56,53,0.291,13.4,14.4,12.8,3.858,1.4,10,27,3.9,0.00111,0.00125,31.5,33.3,18,315,.,.,8.54,0.00,0.00
15min,AgWx,beryljct,423,18JAN2020:11:15:00,34.5,14.38,28.6,28.9,28.3,29.0,28.1,54,56,53,0.285,13.8,14.5,13.3,1.929,2.6,335,10,4.5,0.00124,0.00144,31.5,33.3,18,352,.,.,8.54,0.00,0.00
15min,AgWx,beryljct,423,18JAN2020:11:30:00,34.9,14.33,28.9,28.8,28.8,29.2,28.3,53,54,51,0.276,13.6,14.4,13.1,1.71,1.5,9.7,27,4.1,0.00131,0.00148,31.5,33.3,19,373,.,.,8.53,0.00,0.00
15min,AgWx,beryljct,423,18JAN2020:11:45:00,35.6,14.28,30.0,30.0,29.5,30.1,28.7,52,53,51,0.292,14.1,15.1,13.1,0,1.4,350,24,3.0,0.00145,0.00162,31.5,33.3,19,412,.,.,8.53,0.00,0.00
15min,AgWx,beryljct,423,18JAN2020:12:00:00,36.5,14.24,31.2,30.8,30.3,30.8,30.0,50,52,49,0.287,14.0,14.5,13.5,1.578,0.8,347,17,2.8,0.00137,0.00151,31.5,33.3,18,378,.,.,8.53,0.00,0.00
15min,AgWx,beryljct,423,18JAN2020:12:15:00,37.2,14.28,31.7,31.6,31.1,31.7,30.7,50,51,48,0.291,14.5,15.3,14.1,1.776,1.5,317,29,3.3,0.00145,0.00163,31.5,33.3,18,394,.,.,8.53,0.00,0.00
15min,AgWx,beryljct,423,18JAN2020:12:30:00,37.9,14.23,32.5,32.1,31.9,32.6,31.3,48,49,46,0.283,14.2,15.0,13.5,1.82,2.2,327,45,4.2,0.00182,0.00207,31.5,33.3,18,516,.,.,8.53,0.00,0.00
15min,AgWx,beryljct,423,18JAN2020:12:45:00,38.8,14.21,33.4,33.0,32.8,33.7,32.1,47,49,45,0.304,14.7,16.4,13.6,0.833,3.4,35,19,5.9,0.00206,0.00239,31.5,33.3,19,572,.,.,8.53,0.00,0.00
15min,AgWx,beryljct,423,18JAN2020:13:00:00,39.9,14.18,34.6,34.0,33.5,34.2,32.9,48,50,47,0.310,16.1,17.2,15.4,4.604,3.6,18,21,6.8,0.00196,0.00229,31.5,33.3,18,540,.,.,8.53,0.00,0.00
15min,AgWx,beryljct,423,18JAN2020:13:15:00,40.3,14.2,34.9,34.6,34.3,34.9,34.0,46,48,44,0.301,15.7,16.4,14.8,1.6,3.2,37,21,5.1,0.00157,0.00187,31.5,33.3,18,403,.,.,8.52,0.00,0.00
15min,AgWx,beryljct,423,18JAN2020:13:30:00,40.3,14.22,34.9,34.8,34.6,35.0,34.3,45,46,44,0.305,15.3,16.3,14.7,3.99,2.5,47,23,5.2,0.00138,0.00164,31.5,33.3,18,345,.,.,8.52,0.00,0.00
15min,AgWx,beryljct,423,18JAN2020:13:45:00,40.0,14.24,35.4,34.9,34.9,35.3,34.6,46,47,45,0.323,16.1,17.2,15.4,2.828,2.4,5.5,35,4.3,0.00133,0.00158,31.5,33.3,18,336,.,.,8.52,0.00,0.00
15min,AgWx,beryljct,423,18JAN2020:14:00:00,40.0,14.16,36.0,35.8,35.6,36.4,34.9,46,47,44,0.329,17.0,18.0,16.4,0.745,1.3,338,62,4.2,0.00149,0.00168,31.5,33.3,18,414,.,.,8.52,0.00,0.00
15min,AgWx,beryljct,423,18JAN2020:14:15:00,40.9,14.13,36.8,37.4,36.3,37.4,35.8,45,47,42,0.322,17.0,18.2,16.2,0,1.5,329,29,3.9,0.00161,0.00183,31.5,33.3,18,434,.,.,8.51,0.00,0.00
15min,AgWx,beryljct,423,18JAN2020:14:30:00,42.2,14.09,37.5,37.8,37.4,38.0,36.7,43,45,41,0.322,16.9,17.7,16.3,0.723,1.4,249,74,4.5,0.00185,0.00208,31.5,33.3,18,481,.,.,8.51,0.00,0.00
15min,AgWx,beryljct,423,18JAN2020:14:45:00,43.6,14.05,38.9,38.6,38.2,38.6,37.7,41,44,39,0.314,16.7,18.3,15.2,0,1.9,303,58,4.6,0.00189,0.00217,31.5,33.3,18,481,.,.,8.51,0.00,0.00
15min,AgWx,beryljct,423,18JAN2020:15:00:00,44.5,14.06,39.0,38.8,38.6,38.9,38.3,39,42,38,0.308,16.0,17.4,14.9,0,2.4,9.6,28,5.1,0.00165,0.00195,31.5,33.3,18,419,.,.,8.51,0.00,0.00
15min,AgWx,beryljct,423,18JAN2020:15:15:00,45.1,14.1,39.2,39.4,39.1,39.6,38.8,37,39,36,0.295,15.0,16.2,14.3,0.986,2.9,27,36,5.5,0.00160,0.00193,31.5,33.3,18,396,.,.,8.51,0.00,0.00
15min,AgWx,beryljct,423,18JAN2020:15:30:00,45.6,14.05,39.5,39.5,39.5,39.9,39.3,38,40,36,0.306,16.2,17.4,14.6,2.324,2.5,352,23,5.2,0.00138,0.00168,31.6,33.3,18,350,.,.,8.51,0.00,0.00
15min,AgWx,beryljct,423,18JAN2020:15:45:00,45.9,14.04,39.7,39.8,39.8,40.3,39.4,38,40,37,0.318,16.5,17.5,15.3,1.513,2.5,9.5,25,4.3,0.00129,0.00158,31.6,33.3,18,329,.,.,8.51,0.00,0.00
15min,AgWx,beryljct,423,18JAN2020:16:00:00,46.5,14,40.2,40.5,40.3,40.9,39.7,38,39,37,0.317,16.4,17.1,16.0,3.661,1.0,354,42,4.5,0.00102,0.00118,31.6,33.3,18,294,.,.,8.51,0.00,0.00
15min,AgWx,beryljct,423,18JAN2020:16:15:00,46.6,14.06,40.2,40.1,40.2,40.5,40.0,37,38,36,0.315,16.1,17.0,15.5,0.921,2.2,5.8,24,4.2,0.00056,0.00079,31.6,33.3,18,172,.,.,8.51,0.00,0.00
15min,AgWx,beryljct,423,18JAN2020:16:30:00,45.4,14.09,40.4,40.1,40.0,40.2,39.7,41,45,37,0.333,18.1,20.3,16.0,1.885,2.5,348,21,3.9,0.00061,0.00085,31.6,33.3,18,184,.,.,8.51,0.00,0.00
15min,AgWx,beryljct,423,18JAN2020:16:45:00,44.5,14.13,39.8,39.8,39.9,40.3,39.6,40,42,39,0.346,17.7,18.4,17.0,2.105,2.7,352,11,3.6,0.00029,0.00040,31.6,33.3,18,143,.,.,8.50,0.00,0.00
15min,AgWx,beryljct,423,18JAN2020:17:00:00,43.5,13.35,38.4,38.4,39.4,40.0,38.4,42,44,40,0.346,18.3,19.1,17.4,3.464,2.7,344,5.8,3.9,0.00016,0.00023,31.6,33.3,18,79,.,.,8.51,0.00,0.00
15min,AgWx,beryljct,423,18JAN2020:17:15:00,41.5,13.26,36.8,36.4,37.7,38.7,36.3,45,49,43,0.355,18.5,19.1,18.1,3.025,2.6,313,7.7,3.4,0.00008,0.00012,31.6,33.3,18,43,.,.,8.51,0.00,0.00
15min,AgWx,beryljct,423,18JAN2020:17:30:00,39.1,13.17,33.0,33.3,35.6,37.4,33.3,50,57,44,0.366,18.6,19.7,17.5,2.609,3.6,300,2.3,4.2,0.00009,0.00013,31.6,33.2,19,27,.,.,8.51,0.01,0.00
15min,AgWx,beryljct,423,18JAN2020:17:45:00,36.5,13.11,31.3,30.8,32.3,33.3,30.7,60,66,57,0.381,20.0,20.6,19.7,3.464,2.8,281,15,3.5,-0.00002,-0.00001,31.6,33.2,19,8,.,.,8.51,0.00,0.00
15min,AgWx,beryljct,423,18JAN2020:18:00:00,34.2,13.06,30.8,30.1,30.8,31.5,30.0,65,68,63,0.381,20.5,20.7,20.3,0.745,1.6,270,1.9,3.8,-0.00010,-0.00013,31.6,33.2,18,1,.,.,8.52,0.00,0.00
15min,AgWx,beryljct,423,18JAN2020:18:15:00,32.4,13.03,30.5,29.9,30.0,30.4,29.6,68,69,66,0.382,20.6,20.8,20.4,2.039,2.0,267,3.0,3.2,-0.00009,-0.00010,31.6,33.2,19,0,.,.,8.52,0.00,0.00
15min,AgWx,beryljct,423,18JAN2020:18:30:00,31.1,13.03,29.7,29.3,29.3,29.9,28.5,70,73,68,0.376,20.9,21.3,20.3,3.047,2.1,247,41,4.9,-0.00009,-0.00011,31.6,33.3,19,0,.,.,8.52,0.00,0.00
15min,AgWx,beryljct,423,18JAN2020:18:45:00,30.5,13.01,33.2,32.4,30.7,32.4,29.3,63,69,57,0.353,19.4,20.4,18.8,2.696,3.4,197,16,4.1,-0.00001,0.00000,31.6,33.2,18,0,.,.,8.52,0.00,0.00
15min,AgWx,beryljct,423,18JAN2020:19:00:00,30.3,13,31.3,31.0,32.1,33.3,30.5,58,61,54,0.356,18.7,19.2,18.2,0,1.3,202,36,2.7,-0.00012,-0.00016,31.6,33.2,19,0,.,.,8.52,0.00,0.00
15min,AgWx,beryljct,423,18JAN2020:19:15:00,29.7,12.99,27.4,27.9,29.1,31.1,27.8,67,74,61,0.380,19.5,20.5,18.4,1.995,0.4,105,0.1,2.0,-0.00020,-0.00030,31.7,33.3,19,0,.,.,8.52,0.00,0.00
15min,AgWx,beryljct,423,18JAN2020:19:30:00,28.9,12.98,29.6,28.3,28.2,29.6,26.7,70,75,66,0.365,19.8,20.6,19.0,2.587,1.8,295,35,2.7,-0.00010,-0.00012,31.7,33.2,19,0,.,.,8.52,0.00,0.00
15min,AgWx,beryljct,423,18JAN2020:19:45:00,28.3,12.97,26.3,26.5,27.9,29.5,26.2,72,78,66,0.374,20.0,21.3,19.0,1.206,2.3,349,26,3.3,-0.00008,-0.00009,31.7,33.2,18,0,.,.,8.52,0.00,0.00
15min,AgWx,beryljct,423,18JAN2020:20:00:00,27.6,12.95,23.7,23.7,25.5,26.7,23.7,79,83,77,0.360,20.0,20.7,18.8,0.921,1.2,9.2,25,3.1,-0.00014,-0.00018,31.7,33.2,18,0,.,.,8.52,0.00,0.00
15min,AgWx,beryljct,423,18JAN2020:20:15:00,26.7,12.94,24.6,24.5,24.5,24.8,23.6,83,85,83,0.373,20.2,20.5,19.2,0,0.7,11,21,3.1,-0.00016,-0.00022,31.7,33.3,18,0,.,.,8.53,0.00,0.00
15min,AgWx,beryljct,423,18JAN2020:20:30:00,26.2,12.94,31.5,30.3,26.3,30.3,23.9,76,85,60,0.343,19.7,21.4,18.2,3.091,1.3,334,33,5.1,-0.00013,-0.00017,31.7,33.2,19,0,.,.,8.53,0.00,0.00
15min,AgWx,beryljct,423,18JAN2020:20:45:00,27.0,12.92,32.4,31.8,31.8,32.3,30.3,53,60,51,0.320,16.8,18.2,16.2,2.631,2.5,25,18,4.7,-0.00003,-0.00002,31.7,33.2,18,0,.,.,8.53,0.00,0.00
15min,AgWx,beryljct,423,18JAN2020:21:00:00,28.0,12.92,31.5,31.3,31.5,31.9,30.8,53,55,52,0.314,16.4,16.7,16.0,2.85,2.2,358,14,3.7,-0.00005,-0.00004,31.7,33.2,18,0,.,.,8.52,0.00,0.00
15min,AgWx,beryljct,423,18JAN2020:21:15:00,28.6,12.9,29.6,29.6,30.5,31.4,29.6,56,59,53,0.326,16.5,17.1,16.0,3.814,3.7,41,15,5.3,0.00002,0.00005,31.7,33.2,19,0,.,.,8.53,0.00,0.00
15min,AgWx,beryljct,423,18JAN2020:21:30:00,28.7,12.9,29.1,28.9,29.0,29.6,28.8,61,62,59,0.327,17.2,17.4,17.0,1.798,2.4,17,27,4.3,-0.00005,-0.00005,31.7,33.3,18,0,.,.,8.53,0.00,0.00
15min,AgWx,beryljct,423,18JAN2020:21:45:00,28.5,12.89,28.3,28.3,28.5,28.9,28.1,62,63,61,0.326,17.1,17.3,16.9,0.504,1.5,293,5.7,2.8,-0.00010,-0.00013,31.7,33.2,19,0,.,.,8.53,0.00,0.00
15min,AgWx,beryljct,423,18JAN2020:22:00:00,27.8,12.88,27.9,28.2,28.8,29.2,28.1,60,62,58,0.314,16.5,16.9,16.0,0.921,1.1,289,3.7,2.1,-0.00013,-0.00018,31.7,33.2,19,0,.,.,8.53,0.00,0.00
15min,AgWx,beryljct,423,18JAN2020:22:15:00,27.1,12.87,30.0,29.0,28.8,29.5,28.1,59,61,57,0.312,16.1,16.5,15.7,0,0.5,284,21,1.6,-0.00018,-0.00026,31.7,33.2,19,0,.,.,8.53,0.00,0.00
15min,AgWx,beryljct,423,18JAN2020:22:30:00,26.6,12.87,29.6,28.9,28.9,29.5,28.4,57,58,56,0.306,15.7,16.1,15.4,1.271,0.5,332,12,2.0,-0.00019,-0.00027,31.7,33.2,18,0,.,.,8.53,0.00,0.00
15min,AgWx,beryljct,423,18JAN2020:22:45:00,26.1,12.85,26.7,27.3,28.5,29.1,27.3,57,60,56,0.295,15.3,15.7,14.7,1.03,1.2,320,14,2.7,-0.00012,-0.00015,31.7,33.2,18,0,.,.,8.53,0.00,0.00
15min,AgWx,beryljct,423,18JAN2020:23:00:00,25.6,12.84,27.3,27.8,27.6,28.8,25.7,60,64,56,0.296,15.3,16.1,14.8,0.153,0.5,329,43,2.1,-0.00018,-0.00025,31.7,33.3,18,0,.,.,8.53,0.00,0.00
15min,AgWx,beryljct,423,18JAN2020:23:15:00,25.1,12.84,28.7,28.2,28.3,28.8,27.7,57,59,56,0.296,15.0,15.3,14.7,0,0.2,338,48,1.1,-0.00021,-0.00032,31.7,33.3,18,0,.,.,8.53,0.00,0.00
15min,AgWx,beryljct,423,18JAN2020:23:30:00,24.9,12.83,28.7,28.6,28.3,28.6,27.9,56,57,56,0.297,14.8,15.0,14.5,1.82,1.0,301,20,2.3,-0.00014,-0.00018,31.7,33.2,18,0,.,.,8.53,0.00,0.00
15min,AgWx,bigpiney,439,18JAN2020:00:00:00,-0.5,12.6,-3.4,-4.1,-5.0,-4.0,-6.2,78,80,77,0.098,-10.0,-8.6,-11.7,6.905,3.9,228,16,6.9,-0.00001,-0.00001,28.7,30.2,10,0,0,0.0,5.71,0.00,0.00
15min,AgWx,bigpiney,439,18JAN2020:00:15:00,-0.6,12.59,-3.8,-4.5,-4.7,-4.1,-5.4,78,79,77,0.095,-9.9,-9.1,-10.8,5.656,7.1,226,9.9,8.6,0.00000,0.00001,28.7,30.2,10,0,0,0.0,5.71,0.00,0.00
15min,AgWx,bigpiney,439,18JAN2020:00:30:00,-0.6,12.59,-3.2,-3.6,-4.0,-3.4,-4.5,77,78,76,0.098,-9.3,-8.8,-10.2,4.801,6.0,239,17,7.6,0.00000,0.00000,28.7,30.2,10,0,0,0.0,5.71,0.00,0.00
15min,AgWx,bigpiney,439,18JAN2020:00:45:00,-0.4,12.57,1.7,1.2,-0.4,1.2,-3.9,77,79,76,0.121,-5.8,-4.2,-9.4,5.217,5.0,306,12,6.9,-0.00001,-0.00000,28.7,30.1,10,0,0,0.0,5.71,0.00,0.00
15min,AgWx,bigpiney,439,18JAN2020:01:00:00,-0.0,12.57,-3.7,-2.5,-1.1,1.2,-3.0,75,78,73,0.101,-7.2,-4.7,-9.6,3.244,3.7,236,36,6.6,-0.00001,-0.00001,28.7,30.1,10,0,0,0.0,5.71,0.00,0.00
15min,AgWx,bigpiney,439,18JAN2020:01:15:00,0.1,12.56,-3.1,-4.5,-3.2,-0.3,-4.7,76,80,73,0.094,-8.9,-5.4,-11.0,3.464,2.9,213,22,6.0,-0.00002,-0.00002,28.7,30.2,10,0,0,0.0,5.71,0.00,0.00
15min,AgWx,bigpiney,439,18JAN2020:01:30:00,0.0,12.55,-2.8,-3.8,-2.3,-0.3,-4.4,77,81,74,0.096,-7.8,-5.0,-10.0,5.415,4.6,221,7.4,8.0,-0.00001,-0.00001,28.7,30.2,10,0,0,0.0,5.71,0.00,0.00
15min,AgWx,bigpiney,439,18JAN2020:01:45:00,0.0,12.54,5.5,4.0,-1.1,4.0,-4.0,78,81,76,0.140,-6.3,-1.7,-9.6,2.631,4.8,237,11,6.3,-0.00001,-0.00001,28.7,30.2,10,0,0,0.0,5.71,0.00,0.00
15min,AgWx,bigpiney,439,18JAN2020:02:00:00,0.0,12.53,-2.4,-2.9,-2.3,4.5,-4.0,74,77,68,0.102,-8.5,-1.4,-10.6,7.519,6.2,219,15,9.3,0.00000,0.00001,28.7,30.2,10,0,0,0.0,5.71,0.00,0.00
15min,AgWx,bigpiney,439,18JAN2020:02:15:00,0.0,12.52,-2.8,-3.4,-3.3,-2.9,-3.6,77,78,77,0.100,-8.7,-8.1,-9.1,6.664,6.8,229,5.4,8.7,0.00000,0.00001,28.6,30.1,10,0,0,0.0,5.71,0.00,0.00
15min,AgWx,bigpiney,439,18JAN2020:02:30:00,0.0,12.5,1.2,0.8,-2.3,1.5,-3.8,79,81,77,0.123,-7.3,-3.1,-9.0,7.914,6.7,248,10,8.6,0.00000,0.00000,28.6,30.2,10,0,0,0.0,5.71,0.00,0.00
15min,AgWx,bigpiney,439,18JAN2020:02:45:00,0.2,12.5,1.9,1.1,0.7,1.4,-0.2,76,78,75,0.120,-5.2,-4.3,-6.0,3.025,4.9,286,27,7.5,-0.00001,-0.00000,28.6,30.3,10,0,0,0.0,5.71,0.00,0.00
15min,AgWx,bigpiney,439,18JAN2020:03:00:00,0.5,12.49,3.8,3.1,1.6,3.1,0.2,75,76,73,0.128,-4.5,-3.4,-6.0,1.25,0.6,277,43,3.0,-0.00008,-0.00011,28.6,30.2,10,0,0,0.0,5.71,0.00,0.00
15min,AgWx,bigpiney,439,18JAN2020:03:15:00,0.7,12.48,1.0,-0.3,0.7,3.1,-0.4,73,75,70,0.110,-5.9,-3.5,-7.1,1.841,1.9,228,21,3.5,-0.00004,-0.00005,28.6,30.2,10,0,0,0.0,5.71,0.00,0.00
15min,AgWx,bigpiney,439,18JAN2020:03:30:00,0.7,12.47,-2.9,-3.3,-0.3,1.1,-3.3,74,75,71,0.097,-6.6,-5.0,-9.5,0.11,0.7,245,41,3.2,-0.00007,-0.00009,28.6,30.1,10,0,0,0.0,5.71,0.00,0.00
15min,AgWx,bigpiney,439,18JAN2020:03:45:00,0.5,12.47,-2.0,-2.2,-2.4,-1.0,-3.9,78,79,75,0.107,-7.7,-5.9,-9.9,0,0.5,335,42,1.8,-0.00007,-0.00010,28.6,30.2,10,0,0,0.0,5.71,0.00,0.00
15min,AgWx,bigpiney,439,18JAN2020:04:00:00,0.2,12.45,-4.5,-2.6,-2.0,-1.0,-2.7,79,80,76,0.102,-7.0,-6.0,-8.3,4.998,1.6,234,10,5.0,-0.00004,-0.00006,28.6,30.2,10,0,0,0.0,5.71,0.00,0.00
15min,AgWx,bigpiney,439,18JAN2020:04:15:00,-0.3,12.45,-1.7,-2.4,-1.7,-0.1,-4.4,77,80,73,0.099,-7.2,-5.1,-10.4,0,2.1,278,41,5.3,-0.00003,-0.00004,28.6,30.2,10,0,0,0.0,5.71,0.00,0.00
15min,AgWx,bigpiney,439,18JAN2020:04:30:00,-0.7,12.44,0.8,-2.9,-3.0,-0.4,-5.6,76,81,73,0.099,-8.6,-5.1,-11.6,1.885,2.7,201,26,5.9,-0.00002,-0.00003,28.6,30.2,10,0,0,0.0,5.71,0.00,0.00
15min,AgWx,bigpiney,439,18JAN2020:04:45:00,-0.9,12.43,-1.9,-2.0,-2.0,-0.6,-3.1,76,78,74,0.105,-7.6,-5.7,-9.3,4.998,3.3,227,11,5.0,-0.00002,-0.00002,28.6,30.2,10,0,0,0.0,5.71,0.00,0.00
15min,AgWx,bigpiney,439,18JAN2020:05:00:00,-0.9,12.42,-1.0,-1.4,-1.7,0.5,-3.3,77,79,74,0.108,-7.3,-4.4,-9.2,7.015,5.8,228,6.2,7.0,0.00000,0.00000,28.6,30.2,10,0,0,0.0,5.71,0.00,0.00
15min,AgWx,bigpiney,439,18JAN2020:05:15:00,-0.5,12.4,0.3,-0.2,-0.5,1.4,-1.7,76,77,73,0.111,-6.2,-4.4,-7.4,4.362,5.4,229,8.1,7.2,-0.00000,0.00000,28.6,30.2,10,0,0,0.0,5.71,0.00,0.00
15min,AgWx,bigpiney,439,18JAN2020:05:30:00,-0.1,12.4,-0.7,-1.5,-1.0,-0.1,-1.7,76,77,74,0.109,-6.8,-6.0,-7.4,4.867,4.5,233,24,6.3,-0.00001,-0.00000,28.6,30.2,10,0,0,0.0,5.71,0.00,0.00
15min,AgWx,bigpiney,439,18JAN2020:05:45:00,0.3,12.39,0.2,-0.8,-1.1,-0.3,-1.9,77,78,76,0.114,-6.6,-5.6,-7.7,3.727,4.1,217,6.5,6.7,-0.00001,-0.00001,28.6,30.1,10,0,0,0.0,5.71,0.00,0.00
15min,AgWx,bigpiney,439,18JAN2020:06:00:00,0.5,12.39,-0.9,-1.5,-0.9,-0.4,-1.5,77,78,76,0.108,-6.5,-5.8,-7.2,3.332,3.8,231,12,6.3,-0.00001,-0.00001,28.5,30.1,10,0,0,0.0,5.71,0.00,0.00
15min,AgWx,bigpiney,439,18JAN2020:06:15:00,0.7,12.38,-2.7,-2.4,-1.0,0.0,-2.4,77,78,76,0.103,-6.5,-5.2,-8.1,2.631,3.7,3.3,51,5.8,-0.00002,-0.00001,28.5,30.2,10,0,0,0.0,5.71,0.00,0.00
15min,AgWx,bigpiney,439,18JAN2020:06:30:00,0.6,12.38,-3.1,-3.6,-3.2,-2.4,-3.8,77,78,76,0.100,-8.6,-8.1,-9.1,1.447,2.1,16,24,3.3,-0.00003,-0.00004,28.5,30.1,10,0,0,0.0,5.71,0.00,0.00
15min,AgWx,bigpiney,439,18JAN2020:06:45:00,0.3,12.38,-3.3,-4.3,-4.2,-3.6,-4.6,79,80,78,0.098,-9.1,-8.7,-9.6,0,1.6,95,16,2.9,-0.00004,-0.00005,28.5,30.1,10,0,0,0.0,5.71,0.00,0.00
15min,AgWx,bigpiney,439,18JAN2020:07:00:00,-0.3,12.37,-2.7,-3.6,-3.9,-3.3,-4.3,80,81,80,0.103,-8.5,-7.7,-9.0,1.885,1.3,233,31,2.9,-0.00005,-0.00006,28.5,30.2,10,0,0,0.0,5.71,0.00,0.00
15min,AgWx,bigpiney,439,18JAN2020:07:15:00,-0.9,12.36,-2.5,-3.4,-3.8,-3.1,-5.9,80,81,77,0.105,-8.5,-7.7,-11.4,3.025,2.5,275,35,3.9,-0.00003,-0.00003,28.5,30.2,10,0,0,0.0,5.71,0.00,0.00
15min,AgWx,bigpiney,439,18JAN2020:07:30:00,-1.4,12.36,-4.9,-5.5,-3.4,-1.7,-5.6,79,81,76,0.089,-8.4,-6.5,-11.3,5.831,4.2,238,17,7.4,-0.00001,-0.00001,28.5,30.1,10,0,0,0.0,5.71,0.00,0.00
15min,AgWx,bigpiney,439,18JAN2020:07:45:00,-1.8,12.37,-2.4,-3.2,-4.7,-3.2,-5.5,79,80,77,0.104,-9.5,-7.9,-10.9,7.673,6.2,219,9.2,7.9,-0.00000,0.00000,28.5,30.1,10,1,0,0.0,5.71,0.00,0.00
15min,AgWx,bigpiney,439,18JAN2020:08:00:00,-1.7,12.43,-2.1,-2.6,-2.8,-2.1,-3.4,78,80,77,0.105,-8.0,-6.8,-8.7,8.33,6.7,225,4.4,8.7,0.00002,0.00006,28.5,30.3,10,6,0,0.0,5.71,0.00,0.00
15min,AgWx,bigpiney,439,18JAN2020:08:15:00,-1.4,12.56,-2.0,-2.9,-2.7,-2.5,-3.0,78,78,78,0.103,-7.9,-7.7,-8.2,6.883,6.1,223,6.4,8.3,0.00003,0.00008,28.5,30.1,10,14,0,0.0,5.71,0.00,0.00